Regional Weather Roundup
Issued by NWS

Home | Current Version | Previous Version | Text Only | Print | Product List | Glossary On
Versions: 1 2 3 4 5 6 7 8 9 10 11 12 13 14 15 16 17 18 19 20 21 22 23 24 25 26 27 28 29 30 31 32 33 34 35 36 37 38 39 40 41 42 43 44 45 46 47 48 49 50
000
ASUS43 KMKX 270500
RWRWI

WISCONSIN REGIONAL WEATHER ROUNDUP
NATIONAL WEATHER SERVICE MILWAUKEE/SULLIVAN WI
1200 AM CDT THU JUL 27 2017

NOTE: "FAIR" INDICATES FEW OR NO CLOUDS BELOW 12,000 FEET WITH NO
SIGNIFICANT WEATHER AND/OR OBSTRUCTIONS TO VISIBILITY.

WIZ001-002-006>008-014>016-023>028-270600-
NORTHWEST WISCONSIN

CITY           SKY/WX    TMP DP  RH WIND       PRES   REMARKS
SUPERIOR ARPT  NOT AVBL
ASHLAND        PTCLDY    60  59  96 W3        30.02R
HAYWARD        CLEAR     60  58  92 CALM      30.03S
SIREN          CLEAR     65  62  91 CALM      30.03S
CUMBERLAND     CLEAR     61  59  94 CALM      30.03S
RICE LAKE      CLEAR     63  61  95 CALM      30.03S
CHETEK         CLEAR     64  63  99 CALM      30.02S
LADYSMITH      CLEAR     62  61  94 CALM      30.04S
EAU CLAIRE     NOT AVBL
MENOMONIE      PTCLDY    66  65  95 CALM      30.02R
NEW RICHMOND   CLEAR     65  63  95 CALM      30.03R
OSCEOLA        CLEAR     64  64 100 CALM      30.05S
$$

WIZ003>005-009-010-017-018-270600-
NORTH CENTRAL WISCONSIN

CITY           SKY/WX    TMP DP  RH WIND       PRES   REMARKS
MANITOWISH WTR PTCLDY    56  56 100 CALM      30.03S
ARBOR VITAE    CLEAR     59  58  94 CALM      30.03S
WOODRUFF       CLEAR     59  58  94 CALM      30.03S
RHINELANDER    CLEAR     55  55 100 CALM      30.04S FOG
EAGLE RIVER    CLEAR     56  56 100 CALM      30.03R
LAND O LAKES   CLEAR     55  54  99 CALM      30.04S
PHILLIPS         N/A     58  58 100 CALM      30.03R FOG
TOMAHAWK         N/A     55  54  96 CALM      30.04R
MEDFORD        CLEAR     61  60  99 CALM      30.02S
MERRILL          N/A     61  61 100 CALM      30.03R FOG
$$

WIZ029-030-035-036-043>047-270600-
CENTRAL WISCONSIN

CITY           SKY/WX    TMP DP  RH WIND       PRES   REMARKS
WAUSAU         CLEAR     67  65  93 CALM      29.99S
MOSINEE        CLEAR     66  66 100 N6        30.02S
MARSHFIELD     CLEAR     67  64  90 N7        30.01R
STEVENS POINT  FOG       62  62 100 CALM      30.01S VSB 1
WAUPACA        PTCLDY    73  71  93 CALM      29.98S
WAUTOMA        CLEAR     68  68 100 CALM      29.99S
WISC RAPIDS    CLEAR     66  65  96 N5        30.00F
CAMP DOUGLAS   NOT AVBL
$$

WIZ011>013-019>022-031-037>040-048>050-270600-
NORTHEAST WISCONSIN

CITY           SKY/WX    TMP DP  RH WIND       PRES   REMARKS
ANTIGO         CLEAR     62  59  92 CALM      30.03S
SHAWANO        CLEAR     71  67  86 N3        29.98S
OCONTO         CLOUDY    70  68  93 NW3       29.96R
STURGEON BAY     N/A     72  70  93 NW8       29.97S
GREEN BAY      PTCLDY    72  72 100 CALM      29.97S
MANITOWOC      NOT AVBL
APPLETON       MOCLDY    70  70 100 CALM      29.97S
CLINTONVILLE   CLEAR    N/A N/A N/A NW5       29.98S
OSHKOSH        CLOUDY    71  69  93 CALM      29.98R
$$

WIZ032>034-041-042-053>061-270600-
SOUTHWEST WISCONSIN

CITY           SKY/WX    TMP DP  RH WIND       PRES   REMARKS
LA CROSSE      CLEAR     73  71  93 NW3       29.99R
SPARTA         MOCLDY    67  67  99 CALM      30.00S
VIROQUA        CLOUDY    70  70 100 CALM      30.01S
BOSCOBEL       FOG       71  70  96 CALM      29.98R VSB 1/4
PRAIRIE DU CHI CLOUDY    73  70  92 CALM      29.98R
PLATTEVILLE    CLOUDY    73  73 100 N5        29.99R
$$

WIZ056-057-062-063-064-067-068-270600-
SOUTH CENTRAL WISCONSIN

CITY           SKY/WX    TMP DP  RH WIND       PRES   REMARKS
REEDSBURG      DRIZZLE   70  70 100 SW3       29.99S
BARABOO/DELLS  LGT RAIN  70  69  96 W3        29.99S
LONE ROCK      MOCLDY    68  68 100 CALM      29.97S FOG
MINERAL POINT  MOCLDY    72  72 100 NE3       30.00R
MADISON        FOG       69  69 100 CALM      29.97F VSB 3/4
MIDDLETON      MOCLDY    71  71 100 CALM      29.99S VSB 1/2
WATERTOWN      CLOUDY    71  71 100 CALM      29.97F
MONROE         CLOUDY    70  70 100 CALM      29.97F
JANESVILLE     CLOUDY    72  72 100 CALM      29.95F
$$

WIZ051-052-058>065-066-070>072-270600-
SOUTHEAST WISCONSIN

CITY           SKY/WX    TMP DP  RH WIND       PRES   REMARKS
MILWAUKEE      CLOUDY    75  71  87 W3        29.95F
WAUKESHA       CLOUDY    68  68 100 NW3       29.98S
MILWAUKEE/TIMM CLOUDY    70  66  88 NW3       29.97S FOG
RACINE         CLOUDY    75  71  87 CALM      29.97S
KENOSHA        CLOUDY    73  70  90 S6        29.95F
FOND DU LAC    CLOUDY    71  69  93 CALM      29.98F
SHEBOYGAN      CLOUDY    71  71 100 N6        29.97F FOG
WEST BEND      CLOUDY    70  70 100 CALM      29.97F FOG
JUNEAU         CLOUDY    70  69  98 CALM      29.99S FOG
$$

LSZ147-162-270600-
LAKE SUPERIOR

STATION/POSITION TIME  TEMP    WIND        PRES    WAVE
                       AIR SEA DIR/SP/G            HT/PER
                 (UTC) (F)     (DEG/KT/KT) (MB)    (FT/S)
W MID LAKE BUOY  0350   58 52  290/  6/  8 1014.9R   1
DEVILS ISLAND    0400   71     320/  9/ 11 1015.4R
SAXON HARBOR     0430   64     190/  3/  4 1015.2R
$$

LMZ867-665-643>646-270600-
LAKE MICHIGAN

STATION/POSITION TIME  TEMP    WIND        PRES    WAVE
                       AIR SEA DIR/SP/G            HT/PER
                 (UTC) (F)     (DEG/KT/KT) (MB)    (FT/S)
CHAMBERS ISLAND  0440   72      50/  8/  9 1013.9S
S GREEN BAY BUOY 0430   72 71  280/  6/  6 1014.5R
N MID LAKE BUOY  0350   67 65  240/  2/  2 1014.8S   2/ 5
NORTHPORT PIER   0440   68     320/  3/  3 1014.6S
KEWAUNEE LAKESHO 0430   73     270/  5/  8 1013.8S
SHEBOYGAN LAKESH 0400   72     280/  2/  2 1014.4S
PORT WASHINGTON  0440   72     320/  2/  4 1015.2F
ATWATER BUOY     0309   70 69  180/  4/  6 1014.8F
MILWAUKEE LAKESH 0430   71     100/  1/  1   N/A
S MID LAKE BUOY  0350   73 70  150/ 10/ 10 1014.5F   1
KENOSHA   LAKESH 0400   75     250/  4/  5 1014.6
$$

TC  - TEMPERATURE IN CELSIUS
VSB - VISIBILITY IN STATUTE MILES
WCI - WIND CHILL INDEX
HX  - HEAT INDEX





USA.gov is the U.S. government's official web portal to all federal, state and local government web resources and services.